Weather History for Custer, SD

Change the Weather History Date:

Wednesday, March 20, 2013

  Actual Average Record
Temperature  
Mean Temperature 23 °F 32 °F  
Max Temperature 39 °F 43 °F 68 °F (2007)
Min Temperature 6 °F 22 °F -14 °F (1943)
Degree Days  
Heating Degree Days 42 33  
Month to date heating degree days 679 695  
Since 1 July heating degree days 6221 6530  
Cooling Degree Days 0 0  
Month to date cooling degree days 0 0  
Year to date cooling degree days 0 0  
Moisture  
Dew Point 9 °F    
Average Humidity 47    
Maximum Humidity 73    
Minimum Humidity 21    
Precipitation  
Precipitation 0.00 in 0.04 in 0.50 in (1967)
Month to date precipitation 0.34 0.53  
Year to date precipitation 1.27 1.39  
Sea Level Pressure  
Sea Level Pressure 30.09 in    
Wind  
Wind Speed 6 mph (South)    
Max Wind Speed 14 mph    
Max Gust Speed 20 mph    
Visibility 10 miles    
Events      
T = Trace of Precipitation, MM = Missing Value Source: NWS Daily Summary

Daily Weather History Graph

Daily Weather History Graph

Search for Another Location

Airport:

Trip Planner

Search our weather history database for the weather conditions in past years. The results will help you decide how hot, cold, wet, or windy it might be!

Date:

Astronomy

Mar. 20, 2013 Rise Set
Actual Time 6:57 AM MDT 7:07 PM MDT
Civil Twilight 6:28 AM MDT 7:35 PM MDT
Nautical Twilight 5:54 AM MDT 8:09 PM MDT
Astronomical Twilight 5:20 AM MDT 8:44 PM MDT
Moon 12:34 PM MDT (3/20) 2:48 AM MDT (3/20)
Length of Visible Light 13h 07m
Length of Day
12h 10m
First Quarter, 60% of the Moon is Illuminated
Mar 20
First Quarter
Mar 27
Full
Apr 2
Last Quarter
Apr 10
New
Apr 18
First Quarter

Hourly Weather History & Observations

Time (MDT) Temp. Windchill Dew Point Humidity Pressure Visibility Wind Dir Wind Speed Gust Speed Precip Events Conditions
12:53 AM 10.9 °F 1.4 °F 3.0 °F 70% 30.38 in 10.0 mi WSW 5.8 mph - N/A   Clear
1:53 AM 12.0 °F 2.7 °F 3.0 °F 67% 30.38 in 10.0 mi WSW 5.8 mph - N/A   Clear
2:53 AM 10.0 °F 3.6 °F 3.0 °F 73% 30.35 in 10.0 mi SSW 3.5 mph - N/A   Clear
3:53 AM 8.1 °F 1.4 °F 1.9 °F 76% 30.33 in 10.0 mi WSW 3.5 mph - N/A   Clear
4:53 AM 9.0 °F - 1.0 °F 70% 30.30 in 10.0 mi Calm Calm - N/A   Clear
5:53 AM 10.0 °F 1.8 °F 1.0 °F 67% 30.29 in 10.0 mi WSW 4.6 mph - N/A   Clear
6:53 AM 10.0 °F - 1.0 °F 67% 30.30 in 10.0 mi Calm Calm - N/A   Clear
7:53 AM 12.0 °F - 3.9 °F 70% 30.27 in 10.0 mi Calm Calm - N/A   Clear
8:53 AM 21.9 °F 13.4 °F 9.0 °F 58% 30.22 in 10.0 mi WSW 6.9 mph - N/A   Clear
9:53 AM 28.0 °F 18.6 °F 12.0 °F 51% 30.18 in 10.0 mi SSW 10.4 mph 19.6 mph N/A   Clear
10:53 AM 30.9 °F 22.2 °F 10.0 °F 42% 30.14 in 10.0 mi South 10.4 mph 17.3 mph N/A   Clear
11:53 AM 34.0 °F 26.0 °F 8.1 °F 34% 30.12 in 10.0 mi South 10.4 mph 18.4 mph N/A   Clear
12:53 PM 37.0 °F 30.4 °F 1.9 °F 23% 30.06 in 10.0 mi South 9.2 mph - N/A   Clear
1:53 PM 36.0 °F 28.5 °F 9.0 °F 33% 30.02 in 10.0 mi South 10.4 mph - N/A   Clear
3:53 PM 37.9 °F 32.7 °F 14.0 °F 38% 29.96 in 10.0 mi SE 6.9 mph 17.3 mph N/A   Clear
4:53 PM 37.9 °F 32.7 °F 14.0 °F 38% 29.94 in 10.0 mi Variable 6.9 mph - N/A   Clear
5:53 PM 37.0 °F 32.4 °F 15.1 °F 41% 29.92 in 10.0 mi Variable 5.8 mph - N/A   Mostly Cloudy
6:53 PM 37.0 °F - 15.1 °F 41% 29.90 in 10.0 mi Calm Calm - N/A   Overcast
7:53 PM 35.1 °F 27.9 °F 16.0 °F 46% 29.88 in 10.0 mi East 9.2 mph - N/A   Overcast
8:53 PM 33.1 °F 26.9 °F 17.1 °F 52% 29.82 in 10.0 mi East 6.9 mph - N/A   Overcast
9:53 PM 32.0 °F 24.8 °F 17.1 °F 54% 29.79 in 10.0 mi ENE 8.1 mph - N/A   Overcast
10:53 PM 30.9 °F 26.2 °F 17.1 °F 57% 29.76 in 10.0 mi East 4.6 mph - N/A   Overcast
11:53 PM 28.0 °F 22.8 °F 16.0 °F 61% 29.75 in 10.0 mi NE 4.6 mph - N/A   Scattered Clouds